Location: Mount Cross
(36.6390°N, 79.4878°W)
Time: 09:36:55
(UTC+00:00)

Vanguard 1 Rocket - Pass Details

Date: 07 April 2023
Orbit: 654 x 4221 km, 34.3° (Epoch: 01 June)

Event Time Altitude Azimuth Distance (km) Brightness Sun altitude
Rises 07:47:04 0° 288° (WNW) 7,858 11.9 -34.6°
Enters shadow 07:53:54 10° 280° (W) 6,326 11.3 -33.6°
Reaches altitude 10° 07:53:55 10° 280° (W) 6,324 - -33.6°
Maximum altitude 08:08:15 30° 228° (SW) 3,465 - -31.4°
Drops below altitude 10° 08:16:54 10° 171° (S) 3,746 - -30.1°
Exits shadow 08:18:49 - 163° (SSE) 4,123 10.6 -29.8°
Sets 08:19:48 0° 160° (SSE) 4,346 10.7 -29.6°
